Location: Barcelona
(41.3830°N, 2.1830°E)
Time: 20:21:42
(UTC+01:00)

ISS - Pass Details

Date: 01 March 2021
Orbit: 417 x 422 km, 51.6° (Epoch: 26 February)

Event Time Altitude Azimuth Distance (km) Brightness Sun altitude
Exits shadow 04:53:52 12° 34° (NE) 1,380 -0.6 -29.0°
Drops below altitude 10° 04:54:13 10° 37° (NE) 1,498 -0.3 -29.0°
Sets 04:56:32 0° 51° (NE) 2,364 1.1 -28.6°
